Погода в Верхней Ентале

Россия / Вологодская область     59°52′33″N   46°38′53″E
темп.,
°C
ветер,
м/с
пор.,
м/с
влажн.,
%
обл.,
%
осадки,
мм/ч
давл.,
гПа
погр.,
м
30 июня, чт
чт3000:00+8зсз310785 0.0 1016175
03:00+7сз267830 0.0 1015117
06:00+12с376059 0.0 1013350
09:00+15ссв58481 0.0 10141549
12:00+16ссв683773 0.0 10152273
15:00+15св5943100 0.0 10162213
18:00+15св4104434 0.0 10172277
21:00+9св27664 0.0 1018131
1 июля, пт
пт100:00+5ссв22768 0.0 102043
03:00+5с257476 0.0 102193
06:00+11ссв36585 0.0 1021297
09:00+16ссв36425 0.0 10211347
12:00+20ссв353688 0.0 10201830
15:00+21с34345 0.0 10191954
18:00+19ссз354548 0.0 1019694
21:00+13з22635 0.0 101811
2 июля, сб
сб200:00+11з247193 0.0 101865
03:00+14сз246674 0.0 101777
06:00+15ссз35665 0.0 1016264
09:00+20с34573 0.0 10161053
12:00+20с3563100 0.0 10151100
15:00+20ссв566298 0.1 1015974
18:00+17св3674100 0.1 1016702
21:00+13св25900 0.1 1017132
3 июля, вс
вс300:00+13ссв1486100 0.0 1017106
03:00+12св24905 0.0 1017104
06:00+15ссв357510 0.0 1017348
09:00+19ссв34545 0.0 10171197
12:00+22ссв3444100 0.0 10161725
15:00+24с354028 0.0 10152176
18:00+23ссз355147 0.0 1015866
21:00+17ссз267127 0.0 1015127
4 июля, пн
пн400:00+13св118940 0.0 101610
03:00+12юз00905 0.0 101710
06:00+17зсз006934 0.0 1017134
09:00+23ссз12465 0.0 1017782
12:00+26ссз23361 0.0 10161919
15:00+27сз233720 0.0 10152159
18:00+26зсз245230 0.0 1014369
21:00+21зсз2772100 0.0 1015162